Tillbaka till svenska Fidonet
English   Information   Debug  
FILM   0/18
FNEWS_PUBLISH   4912
FN_SYSOP   42201
FN_SYSOP_OLD1   71952
FTP_FIDO   0/2
FTSC_PUBLIC   0/13972
FUNNY   0/4886
GENEALOGY.EUR   0/71
GET_INFO   105
GOLDED   0/408
HAM   1119/16649
HOLYSMOKE   0/6791
HOT_SITES   0/1
HTMLEDIT   0/71
HUB203   466
HUB_100   264
HUB_400   39
HUMOR   0/29
IC   0/2851
INTERNET   0/424
INTERUSER   0/3
IP_CONNECT   719
JAMNNTPD   0/233
JAMTLAND   0/47
KATTY_KORNER   0/41
LAN   0/16
LINUX-USER   0/19
LINUXHELP   0/1155
LINUX   0/22300
LINUX_BBS   0/957
mail   18.68
mail_fore_ok   249
MENSA   0/341
MODERATOR   0/102
MONTE   0/992
MOSCOW_OKLAHOMA   0/1245
MUFFIN   0/783
MUSIC   0/321
N203_STAT   938
N203_SYSCHAT   313
NET203   321
NET204   69
NET_DEV   0/10
NORD.ADMIN   0/101
NORD.CHAT   0/2572
NORD.FIDONET   189
NORD.HARDWARE   0/28
NORD.KULTUR   0/114
NORD.PROG   0/32
NORD.SOFTWARE   0/88
NORD.TEKNIK   0/58
NORD   0/453
OCCULT_CHAT   0/93
OS2BBS   0/787
OS2DOSBBS   0/580
OS2HW   0/42
OS2INET   0/37
OS2LAN   0/134
OS2PROG   0/36
OS2REXX   0/113
OS2USER-L   207
OS2   0/4830
OSDEBATE   0/18996
PASCAL   0/490
PERL   0/457
PHP   0/45
POINTS   0/405
POLITICS   0/29554
POL_INC   0/14731
PSION   103
R20_ADMIN   1133
R20_AMATORRADIO   0/2
R20_BEST_OF_FIDONET   16
R20_CHAT   0/896
R20_DEPP   0/3
R20_DEV   400
R20_ECHO2   1821
R20_ECHOPRES   0/35
R20_ESTAT   0/719
R20_FIDONETPROG...
...RAM.MYPOINT
  0/2
R20_FIDONETPROGRAM   0/22
R20_FIDONET   0/248
R20_FILEFIND   0/24
R20_FILEFOUND   0/22
R20_HIFI   0/3
R20_INFO2   3714
R20_INTERNET   0/12940
R20_INTRESSE   0/60
R20_INTR_KOM   0/99
R20_KANDIDAT.CHAT   42
R20_KANDIDAT   28
R20_KOM_DEV   112
R20_KONTROLL   0/13360
R20_KORSET   0/18
R20_LOKALTRAFIK   0/24
R20_MODERATOR   0/1852
R20_NC   76
R20_NET200   245
R20_NETWORK.OTH...
...ERNETS
  0/13
R20_OPERATIVSYS...
...TEM.LINUX
  0/44
R20_PROGRAMVAROR   0/1
R20_REC2NEC   534
R20_SFOSM   0/341
R20_SF   0/108
R20_SPRAK.ENGLISH   0/1
R20_SQUISH   107
R20_TEST   2
R20_WORST_OF_FIDONET   20
RAR   0/9
RA_MULTI   106
RA_UTIL   0/162
REGCON.EUR   0/2068
REGCON   0/13
SCIENCE   0/1206
SF   0/239
SHAREWARE_SUPPORT   0/5146
SHAREWRE   0/14
SIMPSONS   0/169
STATS_OLD1   0/2539.065
STATS_OLD2   0/2530
STATS_OLD3   0/2395.095
STATS_OLD4   0/1692.25
SURVIVOR   0/495
SYSOPS_CORNER   0/3
SYSOP   0/84
TAGLINES   0/112
TEAMOS2   0/4530
TECH   0/2617
TEST.444   0/105
TRAPDOOR   0/19
TREK   0/755
TUB   0/290
UFO   0/40
UNIX   0/1316
USA_EURLINK   0/102
USR_MODEMS   0/1
VATICAN   0/2740
VIETNAM_VETS   0/14
VIRUS   0/378
VIRUS_INFO   0/201
VISUAL_BASIC   0/473
WHITEHOUSE   0/5187
WIN2000   0/101
WIN32   0/30
WIN95   0/4291
WIN95_OLD1   0/70272
WINDOWS   0/1517
WWB_SYSOP   0/419
WWB_TECH   0/810
ZCC-PUBLIC   0/1
ZEC   4

 
4DOS   0/134
ABORTION   0/7
ALASKA_CHAT   0/506
ALLFIX_FILE   0/1313
ALLFIX_FILE_OLD1   0/7997
ALT_DOS   0/152
AMATEUR_RADIO   0/1039
AMIGASALE   0/14
AMIGA   0/331
AMIGA_INT   0/1
AMIGA_PROG   0/20
AMIGA_SYSOP   0/26
ANIME   0/15
ARGUS   0/924
ASCII_ART   0/340
ASIAN_LINK   0/651
ASTRONOMY   0/417
AUDIO   0/92
AUTOMOBILE_RACING   0/105
BABYLON5   0/17862
BAG   135
BATPOWER   0/361
BBBS.ENGLISH   0/382
BBSLAW   0/109
BBS_ADS   0/5290
BBS_INTERNET   0/507
BIBLE   0/3563
BINKD   0/1119
BINKLEY   0/215
BLUEWAVE   0/2173
CABLE_MODEMS   0/25
CBM   0/46
CDRECORD   0/66
CDROM   0/20
CLASSIC_COMPUTER   0/378
COMICS   0/15
CONSPRCY   0/899
COOKING   41333
COOKING_OLD1   0/24719
COOKING_OLD2   0/40862
COOKING_OLD3   0/37489
COOKING_OLD4   0/35496
COOKING_OLD5   9370
C_ECHO   0/189
C_PLUSPLUS   0/31
DIRTY_DOZEN   0/201
DOORGAMES   0/2262
DOS_INTERNET   0/196
duplikat   6102
ECHOLIST   0/18295
EC_SUPPORT   0/318
ELECTRONICS   0/359
ELEKTRONIK.GER   1534
ENET.LINGUISTIC   0/13
ENET.POLITICS   0/4
ENET.SOFT   0/11701
ENET.SYSOP   34289
ENET.TALKS   0/32
ENGLISH_TUTOR   0/2000
EVOLUTION   0/1335
FDECHO   0/217
FDN_ANNOUNCE   0/7068
FIDONEWS   25048
FIDONEWS_OLD1   0/49742
FIDONEWS_OLD2   4895/35949
FIDONEWS_OLD3   0/30874
FIDONEWS_OLD4   0/37224
FIDO_SYSOP   12922
FIDO_UTIL   0/180
FILEFIND   0/209
FILEGATE   0/212
Möte HAM, 16649 texter
 lista första sista föregående nästa
Text 1262, 669 rader
Skriven 2006-10-12 23:03:59 av Amsat List (1:323/120.0)
Ärende: [keps]  orb06285.amsa
=============================
[keps]  orb06285.amsa


SB KEPS @ AMSAT  $ORB06285.O
Orbital Elements  06285.OSCAR

HR AMSAT ORBITAL ELEMENTS FOR OSCAR SATELLITES
FROM WA5QGD FORT WORTH,TX October 12, 2006
Send SUBSCRIBE KEPS/UNSUBSCRIBE KEPS to majordomo@amsat.org only
BID: ORB06285.O
TO ALL RADIO AMATEURS BT

Satellite: AO-07
Catalog number: 07530
Epoch time:      06285.18284719
Element set:     702
Inclination:      101.5555 deg
RA of node:       325.1356 deg
Eccentricity:    0.0011872
Arg of perigee:   019.8220 deg
Mean anomaly:     340.3312 deg
Mean motion:   12.53571509 rev/day
Decay rate:       -2.8e-07 rev/day^2
Epoch rev:           46004
Checksum:              270

Satellite: UO-11
Catalog number: 14781
Epoch time:      06285.46051055
Element set:     197
Inclination:      098.2066 deg
RA of node:       298.1702 deg
Eccentricity:    0.0008199
Arg of perigee:   246.0822 deg
Mean anomaly:     113.9548 deg
Mean motion:   14.79467632 rev/day
Decay rate:      -1.73e-06 rev/day^2
Epoch rev:           21310
Checksum:              307

Satellite: RS-10/11
Catalog number: 18129
Epoch time:      06284.94828671
Element set:    0116
Inclination:      082.9214 deg
RA of node:       241.7700 deg
Eccentricity:    0.0012656
Arg of perigee:   122.4646 deg
Mean anomaly:     237.7730 deg
Mean motion:   13.72779204 rev/day
Decay rate:        2.2e-07 rev/day^2
Epoch rev:           96717
Checksum:              305

Satellite: RS-15
Catalog number: 23439
Epoch time:      06284.82306055
Element set:    0985
Inclination:      064.8182 deg
RA of node:       048.5827 deg
Eccentricity:    0.0166313
Arg of perigee:   233.8378 deg
Mean anomaly:     124.7059 deg
Mean motion:   11.27551835 rev/day
Decay rate:       -3.9e-07 rev/day^2
Epoch rev:           48569
Checksum:              337

Satellite: FO-29
Catalog number: 24278
Epoch time:      06284.94314795
Element set:    0344
Inclination:      098.5194 deg
RA of node:       273.3570 deg
Eccentricity:    0.0351136
Arg of perigee:   006.9893 deg
Mean anomaly:     353.5975 deg
Mean motion:   13.52925094 rev/day
Decay rate:     -.00000000 rev/day^2
Epoch rev:           50133
Checksum:              317

Satellite: SO-33
Catalog number: 25509
Epoch time:      06284.83437599
Element set:     764
Inclination:      031.4305 deg
RA of node:       189.8496 deg
Eccentricity:    0.0354999
Arg of perigee:   056.1690 deg
Mean anomaly:     307.2205 deg
Mean motion:   14.28126443 rev/day
Decay rate:       3.03e-06 rev/day^2
Epoch rev:           41572
Checksum:              328

Satellite: VO-52
Catalog number: 28650
Epoch time:      06284.72307494
Element set:    0452
Inclination:      097.8604 deg
RA of node:       355.6265 deg
Eccentricity:    0.0026997
Arg of perigee:   344.8003 deg
Mean anomaly:     015.2364 deg
Mean motion:   14.81185601 rev/day
Decay rate:       2.50e-06 rev/day^2
Epoch rev:           07763
Checksum:              312

/EX
SB KEPS @ AMSAT  $ORB06285.D
Orbital Elements  06285.MICROS

HR AMSAT ORBITAL ELEMENTS FOR THE MICROSATS
FROM WA5QGD FORT WORTH,TX October 12, 2006
Send SUBSCRIBE KEPS/UNSUBSCRIBE KEPS to majordomo@amsat.org only
BID: ORB06285.D
TO ALL RADIO AMATEURS BT

Satellite: AO-16
Catalog number: 20439
Epoch time:      06285.62779642
Element set:     867
Inclination:      098.1903 deg
RA of node:       288.9818 deg
Eccentricity:    0.0010418
Arg of perigee:   200.4074 deg
Mean anomaly:     159.6692 deg
Mean motion:   14.31735387 rev/day
Decay rate:       -5.0e-08 rev/day^2
Epoch rev:           87312
Checksum:              334

Satellite: LO-19
Catalog number: 20442
Epoch time:      06284.58992769
Element set:    0801
Inclination:      098.1858 deg
RA of node:       297.5230 deg
Eccentricity:    0.0011289
Arg of perigee:   203.6339 deg
Mean anomaly:     156.4325 deg
Mean motion:   14.31977677 rev/day
Decay rate:       -3.1e-07 rev/day^2
Epoch rev:           87311
Checksum:              334

Satellite: AO-27
Catalog number: 22825
Epoch time:      06284.52431930
Element set:    0518
Inclination:      098.2972 deg
RA of node:       260.7211 deg
Eccentricity:    0.0007644
Arg of perigee:   281.3977 deg
Mean anomaly:     078.6353 deg
Mean motion:   14.29185617 rev/day
Decay rate:       -2.3e-07 rev/day^2
Epoch rev:           67997
Checksum:              334

Satellite: IO-26
Catalog number: 22826
Epoch time:      06284.89427338
Element set:    0211
Inclination:      098.2917 deg
RA of node:       262.2425 deg
Eccentricity:    0.0008129
Arg of perigee:   276.5826 deg
Mean anomaly:     083.4435 deg
Mean motion:   14.29430161 rev/day
Decay rate:       -3.0e-08 rev/day^2
Epoch rev:           68010
Checksum:              300

Satellite: PO-28
Catalog number: 22829
Epoch time:      06284.69152700
Element set:     493
Inclination:      098.2812 deg
RA of node:       263.2455 deg
Eccentricity:    0.0008925
Arg of perigee:   248.0903 deg
Mean anomaly:     111.9355 deg
Mean motion:   14.30126332 rev/day
Decay rate:        2.2e-07 rev/day^2
Epoch rev:           68029
Checksum:              296

Satellite: GO-32
Catalog number: 25397
Epoch time:      06285.74560687
Element set:     131
Inclination:      098.4535 deg
RA of node:       338.2981 deg
Eccentricity:    0.0000832
Arg of perigee:   190.3220 deg
Mean anomaly:     169.7936 deg
Mean motion:   14.23112554 rev/day
Decay rate:        3.9e-07 rev/day^2
Epoch rev:           42896
Checksum:              319

Satellite: MO-46
Catalog number: 26548
Epoch time:      06285.37805727
Element set:     619
Inclination:      064.5570 deg
RA of node:       229.2496 deg
Eccentricity:    0.0041276
Arg of perigee:   230.7311 deg
Mean anomaly:     129.0126 deg
Mean motion:   14.83030188 rev/day
Decay rate:        3.1e-07 rev/day^2
Epoch rev:           32678
Checksum:              307

